Location: *
(49.0578°N, 2.3450°E)
Time: 00:47:02
(UTC+00:00)

Daily predictions for brighter satellites

Satellite Brightness Start Highest point End
(mag) Time Altitude Azimuth Time Altitude Azimuth Time Altitude Azimuth
FALCON 9 DEB 4.4 00:00:11 10° WNW 00:03:09 38° N 00:06:05 10° ENE
Cosmos 1758 Rocket 3.5 00:05:46 35° SSW 00:07:37 82° WNW 00:12:03 10° N
Cosmos-2242 3.0 00:04:14 10° NNW 00:08:38 74° W 00:10:23 36° S
BREEZE-M DEB (TANK) 3.8 00:10:27 19° E 00:10:27 19° E 00:11:25 10° E
SL-16 R/B 2.4 00:05:46 21° SW 00:09:35 69° WNW 00:15:16 10° NNE
Cosmos 405 Rocket 3.6 00:10:16 28° SE 00:11:21 35° E 00:14:45 10° NNE
Cosmos 2237 Rocket 3.8 00:07:15 10° WSW 00:12:10 30° NW 00:17:06 10° NNE
Cosmos 2369 Rocket 2.2 00:14:01 10° NNW 00:19:47 84° WSW 00:23:24 24° SSE
Cosmos 2279 Rocket 4.0 00:14:55 10° N 00:21:12 88° W 00:24:57 26° S
Cosmos 1634 Rocket 4.3 00:18:30 10° NNW 00:24:40 56° W 00:28:13 26° SSW
Cosmos 468 Rocket 4.1 00:22:37 30° S 00:25:07 66° ESE 00:30:20 10° NNE
PSLV R/B 3.6 00:23:28 10° NNE 00:27:49 78° WNW 00:29:51 32° SSW
Cosmos 2058 3.8 00:27:05 26° SE 00:28:51 39° E 00:32:41 10° NNE
ATLAS 5 CENTAUR R/B 3.4 00:29:08 14° SE 00:30:01 15° ESE 00:32:22 10° ENE
Aureole 3 4.5 00:29:05 10° NNW 00:32:40 35° W 00:34:22 26° SW
Cosmos 2263 4.1 00:30:03 10° NNW 00:35:46 85° WSW 00:39:42 21° SSE
Cosmos 2221 3.0 00:33:56 10° N 00:38:10 55° ENE 00:40:40 23° SSE
Cosmos 1763 Rocket 3.4 00:35:46 30° SSW 00:38:22 82° ESE 00:43:33 10° NNE
USA 267 3.5 00:34:12 21° SSE 00:38:24 46° SW 00:44:40 10° WNW
USA 307 4.2 00:39:13 22° SE 00:39:41 23° SE 00:43:03 10° E
CREW DRAGON DEMO-1 DEB 2.5 00:40:08 62° ENE 00:40:08 62° ENE 00:42:14 10° ENE
NOSS 2-3 (D) 3.8 00:38:31 23° SW 00:41:05 70° NW 00:46:04 10° NE
BREEZE-M R/B 4.2 00:41:41 17° SE 00:41:43 17° SE 00:44:21 10° E
MOZ.5/SAFIR/RUBIN 5/SL-8 4.3 00:39:14 18° SE 00:42:36 59° ENE 00:47:19 10° N
Cosmos 2098 Rocket 4.0 00:40:13 22° SSE 00:43:15 47° E 00:47:23 10° NNE
Meteor 2-13 Rocket 4.4 00:40:40 26° SSW 00:44:22 85° W 00:50:35 10° N
Cosmos 1606 3.8 00:42:31 10° N 00:46:10 39° ENE 00:48:37 18° SE
Thor Agena Rocket 4.3 00:42:03 10° N 00:47:02 44° WNW 00:50:21 20° SW
FALCON 9 DEB 2.9 00:47:43 10° WNW 00:51:08 85° SSW 00:54:31 10° ESE
SJ 16-02 3.1 00:50:34 10° NW 00:53:23 17° W 00:54:25 16° WSW
USA 308 3.9 00:54:37 26° SSE 00:55:34 29° SE 00:59:16 10° ENE
Meteor 2-2 Rocket 4.4 00:49:38 10° NNW 00:55:42 81° W 00:59:45 22° S
Resurs 1-4 Rocket 3.1 00:50:54 10° NNE 00:55:51 37° E 00:59:27 17° SSE
Helios 1B rocket 4.3 00:52:41 10° NE 00:55:56 22° E 00:58:31 13° SE
NOSS 2-3 (C) 4.3 00:54:45 16° WSW 00:57:59 52° NW 01:03:00 10° NE
Nadezhda 4 Rocket 4.0 00:54:45 23° S 00:58:43 77° E 01:04:51 10° NNE
YAOGAN 11 4.1 00:59:31 27° S 01:01:52 70° WSW 01:06:24 10° NNW
X-37B 1.3 01:05:32 35° SSE 01:05:32 35° SSE 01:08:01 10° ESE
ADEOS II 3.9 01:01:11 10° NE 01:05:16 22° E 01:09:20 10° SE
Cosmos 1892 4.1 01:05:13 20° WSW 01:07:00 29° WNW 01:10:26 10° N
Cosmos 1943 Rocket 3.6 01:04:43 10° NW 01:08:35 20° W 01:10:23 17° SW
Cosmos 1437 Rocket 3.0 01:07:18 10° NNW 01:11:05 50° W 01:12:36 30° SSW
Helios 1A 3.0 01:09:08 28° S 01:11:13 62° WSW 01:15:24 10° NNW
USA 305 3.5 01:11:07 28° S 01:12:42 40° SE 01:16:42 10° ENE
FALCON 9 DEB 3.7 01:09:54 10° WNW 01:13:00 53° NNE 01:16:04 10° E
Cosmos 540 Rocket 3.4 01:12:18 25° SSW 01:15:22 86° WNW 01:20:31 10° NNE
EO 1 Del DPAF 4.3 01:12:14 10° N 01:15:37 33° WNW 01:17:28 21° WSW
CZ-2D R/B 2.5 01:12:53 10° NNE 01:18:01 54° E 01:21:42 19° S
SL-4 R/B 2.4 01:14:31 10° WNW 01:18:16 57° N 01:21:46 10° E
Lacrosse 4 Rocket 1.4 01:14:32 10° NNW 01:18:39 78° NE 01:22:41 10° SE
Cosmos 1943 3.3 01:18:33 21° SW 01:22:22 72° WNW 01:28:03 10° NNE
Exosat Rocket 4.2 01:19:22 18° SW 01:23:58 58° WNW 01:29:04 10° NNE
NOSS 2-2 (E) 3.4 01:23:29 29° S 01:24:56 52° SE 01:28:39 10° NE
Cosmos 1242 Rocket 2.7 01:23:55 10° NNW 01:27:28 56° W 01:29:09 28° SSW
Cosmos 841 Rocket 3.5 01:24:11 23° SSW 01:27:28 81° WNW 01:32:39 10° NNE
Lacrosse 5 rocket 2.9 01:24:45 10° NW 01:28:03 33° NNE 01:31:23 10° E
FALCON 9 DEB 3.0 01:25:17 10° WNW 01:28:22 75° NNE 01:31:27 10° ESE
DELTA 2 R/B (1) 4.3 01:27:52 21° SW 01:30:31 31° S 01:35:19 10° ESE
Aureole 3 Rocket 3.1 01:26:55 10° NNW 01:30:51 82° W 01:35:00 16° S
Cosmos 1825 3.3 01:29:14 20° WSW 01:31:04 31° WNW 01:34:28 10° N
Cosmos 1603 4.0 01:28:04 18° SW 01:32:13 60° WNW 01:37:50 10° NNE
USA 229 DEB 4.2 01:26:09 10° WSW 01:32:29 55° NW 01:39:21 10° NE
USA 229 4.2 01:26:17 10° WSW 01:32:35 55° NW 01:39:27 10° NE
UNK 3.7 01:29:27 15° SSE 01:33:18 87° ENE 01:37:58 10° NNW
USA 306 3.1 01:32:45 24° SW 01:35:07 55° SE 01:39:17 10° ENE
Cosmos 1937 Rocket 4.3 01:31:29 10° NW 01:36:16 34° WSW 01:39:08 20° SSW
FALCON 9 DEB 3.1 01:33:29 10° WNW 01:36:36 71° NNE 01:39:43 10° ESE
ERBS 4.4 01:35:40 13° SSE 01:36:37 14° SE 01:38:23 10° E
ARGOS Delta rocket 4.2 01:31:12 10° N 01:36:44 88° WNW 01:40:44 19° SSW
SL-16 R/B 2.5 01:31:08 12° SSE 01:36:54 81° WSW 01:43:08 10° NNW
Meteor 2-19 Rocket 4.5 01:33:27 19° S 01:38:07 90° NW 01:44:16 10° N
CZ-4 R/B 4.3 01:33:45 10° N 01:38:15 48° WNW 01:41:21 19° SW
NOSS 2-2 (C) 3.3 01:37:08 26° SSW 01:38:50 55° SE 01:42:31 10° NE
FALCON 9 DEB 2.9 01:35:54 10° WNW 01:39:01 82° NNE 01:42:07 10° ESE
Cosmos 1092 Rocket 4.0 01:36:11 18° S 01:40:52 87° W 01:47:04 10° N
USA 215 4.2 01:39:58 10° ENE 01:46:11 48° N 01:52:23 10° W
Cosmos 921 Rocket 3.2 01:44:24 21° SW 01:47:03 60° WNW 01:51:13 10° NNE
CZ-4C R/B 4.0 01:44:42 10° SSE 01:47:55 17° ESE 01:51:27 10° ENE
NOSS 3-1 (A) 4.3 01:46:53 10° WSW 01:52:16 44° NNW 01:58:40 10° NE
ADEOS Rocket 3.4 01:45:18 10° SSE 01:52:31 80° ENE 01:59:02 10° NNW
SL-16 R/B 4.4 01:50:59 10° WNW 01:54:48 18° NW 01:58:37 10° N
Cosmos 2151 2.9 01:53:31 18° S 01:56:36 87° WNW 02:00:49 10° N
USA 290 2.4 01:55:28 23° SW 01:57:19 63° WNW 02:00:32 10° NNE
Cosmos 1814 Rocket 4.1 01:55:05 18° SW 01:58:59 66° WNW 02:04:09 10° NNE
Cosmos 2298 Rocket 4.0 01:54:23 10° NNW 01:59:44 80° WSW 02:05:04 10° SSE
Cosmos 1633 3.0 01:58:12 20° SW 02:00:17 46° WNW 02:03:43 10° N
Cosmos 2369 Rocket 4.0 01:59:51 10° WNW 02:02:55 15° W 02:05:09 12° WSW
Cosmos 1076 Rocket 4.1 02:01:26 18° SW 02:04:18 43° WNW 02:08:22 10° N
Cosmos 1271 Rocket 3.8 02:01:16 10° N 02:04:52 43° ENE 02:08:27 10° SSE
Cosmos 1782 3.0 02:06:03 10° N 02:10:04 74° E 02:14:04 10° SSE
IRIDIUM 104 4.4 02:05:11 10° N 02:10:26 82° E 02:15:40 10° S
Cosmos 2150 Rocket 4.0 02:05:39 10° NNW 02:10:50 70° WSW 02:16:03 10° SSE
Cosmos 1570 Rocket 4.4 02:08:00 15° SW 02:12:13 53° WNW 02:17:21 10° NNE
CREW DRAGON DEMO-1 DEB 3.5 02:11:16 10° WNW 02:13:36 41° N 02:15:57 10° ENE
ATLAS 5 CENTAUR R/B 1.5 02:10:38 15° SW 02:13:51 74° NW 02:18:25 10° NE
Cosmos 2221 4.4 02:12:36 10° NW 02:15:16 16° W 02:17:30 12° WSW
Cosmos 1125 Rocket 3.5 02:10:34 10° NNW 02:15:50 76° WSW 02:21:07 10° SSE
OE (NEXTSAT) 4.5 02:12:33 10° W 02:15:55 50° S 02:19:15 10° ESE
Cosmos 1437 4.3 02:15:11 10° NW 02:17:04 17° W 02:17:58 15° WSW
Cosmos 2292 Rocket 2.5 02:16:42 16° S 02:18:59 85° W 02:22:02 10° N
USA 307 2.9 02:15:18 12° WSW 02:19:15 88° NNW 02:23:31 10° ENE
IRIDIUM 114 4.3 02:14:21 10° N 02:19:36 84° W 02:24:49 10° S
CENTAUR R/B 3.8 02:12:48 10° NW 02:20:38 63° NE 02:29:22 10° ESE
CZ-4C R/B 3.8 02:17:39 10° SSE 02:21:01 52° ENE 02:24:25 10° N
Meteor 1-29 2.9 02:17:41 10° NNE 02:21:07 86° WNW 02:24:01 14° SSW
Cosmos 1606 4.5 02:18:56 10° NW 02:21:33 18° W 02:23:35 12° WSW
USA 238 DEB 4.5 02:16:34 10° NW 02:23:42 63° NE 02:31:10 10° ESE
USA 238 4.5 02:16:41 10° NW 02:23:49 62° NE 02:31:17 10° ESE
ARIANE 5 R/B 4.1 02:20:19 10° NE 02:24:41 30° E 02:29:03 10° SSE
IRIDIUM 103 4.4 02:23:31 10° N 02:28:44 71° W 02:33:55 10° S
Helios 1B rocket 3.2 02:27:30 10° N 02:31:19 39° WNW 02:34:49 12° SW
Cosmos 1833 Rocket 4.4 02:26:48 10° SSE 02:31:25 27° ESE 02:36:04 10° NE
AQUA 4.3 02:29:31 10° N 02:34:07 49° WNW 02:38:32 11° SW
Meteor 1-28 Rocket 3.3 02:30:33 10° S 02:34:18 63° W 02:38:06 10° NNW
Cosmos 1553 Rocket 4.1 02:28:38 10° NNW 02:34:51 61° W 02:40:55 10° S
SL-19 R/B 4.4 02:29:47 10° N 02:34:58 59° WNW 02:40:16 10° SSW
Meteor 2-14 Rocket 4.5 02:29:03 10° S 02:35:10 86° W 02:41:21 10° N
USA 308 3.0 02:31:01 10° WSW 02:35:16 75° NNW 02:39:33 10° ENE
Resurs 1-4 Rocket 3.0 02:30:48 10° N 02:35:39 37° WNW 02:40:29 10° SW
NOSS 2-2 (D) 3.9 02:33:22 10° WSW 02:36:41 44° NW 02:40:28 10° NE
ASTEX 1 3.5 02:33:14 10° S 02:38:11 83° E 02:43:08 10° N
Cosmos 1933 4.4 02:37:03 10° NNW 02:40:39 30° W 02:44:15 10° SSW
X-37B 1.9 02:38:46 10° WSW 02:41:13 21° SSW 02:43:41 10° SSE
S3M 4.0 02:35:24 10° NNW 02:41:34 78° W 02:47:46 10° S
ADEOS II 2.3 02:40:10 10° N 02:45:21 59° WNW 02:50:30 10° SSW
Cosmos 1328 Rocket 3.6 02:41:49 10° NNW 02:46:10 69° W 02:50:31 10° S
Landsat 4 4.2 02:44:54 10° N 02:48:34 48° WNW 02:52:11 10° SW
FALCON 9 DEB 3.4 02:45:43 10° WNW 02:48:39 37° SW 02:51:35 10° SE
USA 305 3.3 02:48:20 10° W 02:52:33 61° NNW 02:56:47 10° ENE
Cosmos 2082 Rocket 4.3 02:52:23 10° SSE 02:56:33 22° E 03:00:43 10° NE
Lacrosse 4 Rocket 3.3 02:54:54 10° W 02:56:42 13° WSW 02:58:28 10° SW
CZ-3B R/B 1.4 02:52:29 10° WNW 02:57:25 80° SW 02:59:45 10° SE
SL-08 R/B 3.6 02:53:06 10° SSE 02:57:46 72° ENE 03:02:33 10° N
CZ-2D R/B 3.5 02:53:31 10° N 02:57:46 26° WNW 03:02:00 10° WSW
SL-4 R/B 1.5 02:54:17 10° WNW 02:57:54 70° SSW 03:01:20 10° ESE
IDEFIX/ARIANE 42P 2.6 02:52:40 10° NNE 02:57:56 81° WNW 03:03:09 10° SSW
FALCON 9 DEB 4.1 03:01:17 10° W 03:03:42 21° SW 03:06:08 10° SSE
deb Kosmos-1763 4.3 03:01:00 10° S 03:04:28 63° ESE 03:07:58 10° NNE
CZ-2C R/B 4.0 03:00:20 10° NNE 03:04:50 34° E 03:09:10 10° SSE
